M I D A S
Marine Information and Data Acquisition System
Tripno 1620 of the Zeeleeuw from 2008-12-16 07:49:51 to 2008-12-16 15:34:48
Back to CruiseResearch ActivitiesStationsMapUnderway DataData graphs

EquipmentUnitsComment
TimeDGPSUTC
LatitudeDGPSDM.mWGS84
LongitudeDGPSDM.mWGS84
TemperatureSBE03/SBE38deg celciusITS90
ConductivitySBE21S/mITS90
SalinitySBE21 Practical Salinity Units
ChlorophylAChelsea fluorimeterg/lCalibrated in Aceton
Missing or incorrect values are displayed as -999
Sea surface data collected by the RV Zeeleeuw from 2008-12-16 07:55:19 to 2008-12-16 15:37:03
Time Latitude Longitude Temperature Conductivity Salinity ChlorophylA
2008-12-16 07:56:24 51°13.679 2°55.889 -999 0.066289 0.363934 -0.93092
2008-12-16 07:57:24 51°13.687 2°55.79 -999 0.066289 0.363979 -0.93092
2008-12-16 07:58:24 51°13.684 2°55.734 -999 0.066289 0.363999 -0.965744
2008-12-16 07:59:24 51°13.719 2°55.725 -999 0.066289 0.364057 -0.965744
2008-12-16 08:00:24 51°13.817 2°55.644 -999 0.066289 0.364064 -0.965744
2008-12-16 08:01:24 51°13.941 2°55.552 -999 0.066289 0.364115 -0.965744
2008-12-16 08:02:24 51°14.068 2°55.459 -999 0.066289 0.364154 -0.93092
2008-12-16 08:03:24 51°14.193 2°55.356 -999 0.066289 0.364187 -0.93092
2008-12-16 08:04:24 51°14.298 2°55.199 -999 0.066289 0.364213 -0.93092
2008-12-16 08:05:24 51°14.4 2°55.011 -999 0.066289 0.364245 -0.965744
2008-12-16 08:06:24 51°14.518 2°54.828 -999 0.066289 0.364271 -0.965744
2008-12-16 08:07:24 51°14.657 2°54.674 -999 0.066289 0.36431 -0.93092
2008-12-16 08:08:24 51°14.805 2°54.527 -999 0.066186 0.363752 -0.93092
2008-12-16 08:09:24 51°14.963 2°54.38 -999 0.066186 0.363778 -0.93092
2008-12-16 08:10:24 51°15.13 2°54.232 -999 0.066186 0.363804 -0.93092
2008-12-16 08:11:24 51°15.305 2°54.072 -999 0.066186 0.36383 -0.965744
2008-12-16 08:12:24 51°15.481 2°53.918 -999 0.066186 0.363862 -0.93092
2008-12-16 08:13:24 51°15.659 2°53.76 -999 0.066186 0.363888 -0.965744
2008-12-16 08:14:24 51°15.835 2°53.601 -999 0.066186 0.363927 -0.965744
2008-12-16 08:15:24 51°16.012 2°53.44 -999 0.066186 0.363947 -0.965744
2008-12-16 08:16:24 51°16.192 2°53.286 -999 0.066186 0.363979 -0.93092
2008-12-16 08:17:24 51°16.373 2°53.132 -999 0.066186 0.364005 -0.965744
2008-12-16 08:18:24 51°16.556 2°52.982 -999 0.066186 0.364031 -0.93092
2008-12-16 08:19:24 51°16.737 2°52.835 -999 0.066186 0.364064 -0.965744
2008-12-16 08:20:24 51°16.912 2°52.685 -999 0.066186 0.36409 -0.93092
2008-12-16 08:21:24 51°17.088 2°52.53 -999 0.066186 0.364122 -0.93092
2008-12-16 08:22:24 51°17.265 2°52.376 -999 0.066186 0.364148 -0.93092
2008-12-16 08:23:24 51°17.436 2°52.202 -999 0.066186 0.364187 -0.93092
2008-12-16 08:24:24 51°17.599 2°52.007 -999 0.066186 0.364213 -0.93092
2008-12-16 08:25:24 51°17.758 2°51.802 -999 0.066186 0.364245 -0.93092
2008-12-16 08:26:24 51°17.918 2°51.594 -999 0.066083 0.3637 -0.93092
2008-12-16 08:27:24 51°18.073 2°51.374 -999 0.066083 0.363726 -0.93092
2008-12-16 08:28:24 51°18.229 2°51.151 -999 0.066083 0.363765 -0.93092
2008-12-16 08:29:24 51°18.385 2°50.931 -999 0.066083 0.363797 -0.93092
2008-12-16 08:30:24 51°18.542 2°50.707 -999 0.066083 0.36383 -0.93092
2008-12-16 08:31:24 51°18.698 2°50.479 -999 0.066083 0.363862 -0.93092
2008-12-16 08:32:24 51°18.855 2°50.254 -999 0.066083 0.363895 -0.965744
2008-12-16 08:33:24 51°19.016 2°50.034 -999 0.066083 0.363934 -0.93092
2008-12-16 08:34:24 51°19.177 2°49.812 -999 0.066083 0.36396 -0.93092
2008-12-16 08:35:24 51°19.34 2°49.586 -999 0.066083 0.363999 -0.93092
2008-12-16 08:36:24 51°19.506 2°49.359 -999 0.066083 0.364031 -0.965744
2008-12-16 08:37:24 51°19.671 2°49.131 -999 0.066083 0.364057 -0.93092
2008-12-16 08:38:24 51°19.835 2°48.907 -999 0.066083 0.364096 -0.93092
2008-12-16 08:39:24 51°19.995 2°48.684 -999 0.066083 0.364122 -0.93092
2008-12-16 08:40:24 51°20.155 2°48.468 -999 0.066083 0.364161 -0.93092
2008-12-16 08:41:24 51°20.317 2°48.25 -999 0.06598 0.363615 -0.965744
2008-12-16 08:42:24 51°20.475 2°48.015 -999 0.06598 0.363641 -0.93092
2008-12-16 08:43:24 51°20.64 2°47.8 -999 0.06598 0.363674 -0.93092
2008-12-16 08:44:24 51°20.833 2°47.676 -999 0.06598 0.363719 -0.93092
2008-12-16 08:45:24 51°21.032 2°47.574 -999 0.06598 0.363752 -0.93092
2008-12-16 08:46:24 51°21.233 2°47.468 -999 0.06598 0.363778 -0.93092
2008-12-16 08:47:24 51°21.434 2°47.357 -999 0.06598 0.363817 -0.965744
2008-12-16 08:48:24 51°21.633 2°47.243 -999 0.06598 0.363843 -0.93092
2008-12-16 08:49:24 51°21.827 2°47.122 -999 0.06598 0.363888 -0.93092
2008-12-16 08:50:24 51°22.02 2°47.007 -999 0.06598 0.363915 -0.965744
2008-12-16 08:51:24 51°22.213 2°46.895 -999 0.06598 0.363947 -0.93092
2008-12-16 08:52:24 51°22.405 2°46.792 -999 0.06598 0.36398 -0.93092
2008-12-16 08:53:24 51°22.593 2°46.664 -999 0.06598 0.364019 -0.93092
2008-12-16 08:54:24 51°22.736 2°46.415 -999 0.06598 0.364051 -0.93092
2008-12-16 08:55:24 51°22.859 2°46.132 -999 0.06598 0.364084 -0.965744
2008-12-16 08:56:24 51°22.987 2°45.851 -999 0.06598 0.364117 -0.93092
2008-12-16 08:57:24 51°23.113 2°45.569 -999 0.065877 0.363576 -0.93092
2008-12-16 08:58:24 51°23.241 2°45.29 -999 0.065877 0.363602 -0.965744
2008-12-16 08:59:24 51°23.368 2°45.012 -999 0.065877 0.363641 -0.93092
2008-12-16 09:00:24 51°23.489 2°44.728 -999 0.065877 0.363674 -0.93092
2008-12-16 09:01:24 51°23.613 2°44.448 -999 0.065877 0.363713 -0.93092
2008-12-16 09:02:24 51°23.734 2°44.163 -999 0.065877 0.363739 -0.93092
2008-12-16 09:03:24 51°23.856 2°43.881 -999 0.065877 0.363778 -0.965744
2008-12-16 09:04:24 51°23.98 2°43.603 -999 0.065877 0.363811 -0.93092
2008-12-16 09:05:24 51°24.107 2°43.327 -999 0.065877 0.363843 -0.965744
2008-12-16 09:06:24 51°24.246 2°43.07 -999 0.065877 0.363882 -0.93092
2008-12-16 09:07:24 51°24.39 2°42.822 -999 0.065877 0.363915 -0.93092
2008-12-16 09:08:24 51°24.526 2°42.566 -999 0.065877 0.363948 -0.93092
2008-12-16 09:09:24 51°24.659 2°42.309 -999 0.065877 0.363987 -0.93092
2008-12-16 09:10:24 51°24.811 2°42.089 -999 0.065877 0.364013 -0.93092
2008-12-16 09:11:24 51°24.952 2°41.848 -999 0.065877 0.364046 -0.93092
2008-12-16 09:12:24 51°25.077 2°41.579 -999 0.065774 0.363485 -0.93092
2008-12-16 09:13:24 51°25.196 2°41.304 -999 0.065774 0.363524 -0.93092
2008-12-16 09:14:24 51°25.311 2°41.022 -999 0.065774 0.363557 -0.93092
2008-12-16 09:15:24 51°25.419 2°40.731 -999 0.065774 0.363589 -0.93092
2008-12-16 09:16:24 51°25.536 2°40.444 -999 0.065774 0.363622 -0.93092
2008-12-16 09:17:24 51°25.662 2°40.17 -999 0.065774 0.363661 -0.93092
2008-12-16 09:18:24 51°25.782 2°39.888 -999 0.065774 0.363694 -0.93092
2008-12-16 09:19:24 51°25.909 2°39.617 -999 0.065774 0.363733 -0.93092
2008-12-16 09:20:24 51°26.037 2°39.346 -999 0.065774 0.363766 -0.93092
2008-12-16 09:21:24 51°26.163 2°39.073 -999 0.065774 0.363798 -0.93092
2008-12-16 09:22:24 51°26.288 2°38.798 -999 0.065774 0.363844 -0.93092
2008-12-16 09:23:24 51°26.405 2°38.515 -999 0.065774 0.36387 -0.93092
2008-12-16 09:24:24 51°26.539 2°38.254 -999 0.065774 0.363909 -0.93092
2008-12-16 09:25:24 51°26.676 2°37.995 -999 0.065774 0.363942 -0.93092
2008-12-16 09:26:24 51°26.819 2°37.749 -999 0.065774 0.363981 -0.93092
2008-12-16 09:27:24 51°26.966 2°37.511 -999 0.065671 0.363426 -0.93092
2008-12-16 09:28:24 51°27.117 2°37.288 -999 0.065671 0.363459 -0.965744
2008-12-16 09:29:24 51°27.271 2°37.071 -999 0.065671 0.363505 -0.965744
2008-12-16 09:30:24 51°27.428 2°36.859 -999 0.065671 0.363524 -0.93092
2008-12-16 09:31:24 51°27.59 2°36.665 -999 0.065671 0.363564 -0.93092
2008-12-16 09:32:24 51°27.749 2°36.461 -999 0.065671 0.363609 -0.93092
2008-12-16 09:33:24 51°27.906 2°36.255 -999 0.065671 0.363642 -0.93092
2008-12-16 09:34:24 51°28.078 2°36.091 -999 0.065671 0.363675 -0.93092
2008-12-16 09:35:24 51°28.266 2°36.005 -999 0.065671 0.363721 -0.93092
2008-12-16 09:36:24 51°28.455 2°35.925 -999 0.065671 0.36376 -0.93092
2008-12-16 09:37:24 51°28.645 2°35.9 -999 0.065671 0.363793 -0.93092
2008-12-16 09:38:24 51°28.833 2°35.915 -999 0.065671 0.363839 -0.93092
2008-12-16 09:39:24 51°29.016 2°35.965 -999 0.065671 0.363858 -0.93092
2008-12-16 09:40:24 51°29.199 2°36.026 -999 0.065671 0.363904 -0.965744
2008-12-16 09:41:24 51°29.381 2°36.093 -999 0.065671 0.363937 -0.93092
2008-12-16 09:42:24 51°29.561 2°36.169 -999 0.065671 0.364002 -0.93092
2008-12-16 09:43:24 51°29.741 2°36.242 -999 0.065568 0.363388 -0.93092
2008-12-16 09:44:24 51°29.92 2°36.321 -999 0.065568 0.36344 -0.93092
2008-12-16 09:45:24 51°30.101 2°36.388 -999 0.065568 0.363479 -0.93092
2008-12-16 09:46:24 51°30.282 2°36.463 -999 0.065568 0.363512 -0.93092
2008-12-16 09:47:24 51°30.46 2°36.547 -999 0.065568 0.363538 -0.93092
2008-12-16 09:48:24 51°30.638 2°36.636 -999 0.065568 0.363571 -0.93092
2008-12-16 09:49:24 51°30.817 2°36.722 -999 0.065568 0.36361 -0.93092
2008-12-16 09:50:24 51°30.998 2°36.793 -999 0.065568 0.363643 -0.93092
2008-12-16 09:51:24 51°31.178 2°36.874 -999 0.065568 0.363676 -0.965744
2008-12-16 09:52:24 51°31.357 2°36.956 -999 0.065568 0.363715 -0.93092
2008-12-16 09:53:24 51°31.535 2°37.038 -999 0.065568 0.363741 -0.93092
2008-12-16 09:54:24 51°31.713 2°37.123 -999 0.065568 0.363774 -0.93092
2008-12-16 09:55:24 51°31.889 2°37.218 -999 0.065568 0.363807 -0.93092
2008-12-16 09:56:24 51°32.067 2°37.303 -999 0.065568 0.36384 -0.93092
2008-12-16 09:57:24 51°32.245 2°37.381 -999 0.065568 0.363873 -0.93092
2008-12-16 09:58:24 51°32.422 2°37.463 -999 0.065568 0.363899 -0.93092
2008-12-16 09:59:24 51°32.599 2°37.548 -999 0.065465 0.363336 -0.93092
2008-12-16 10:00:24 51°32.776 2°37.632 -999 0.065465 0.363369 -0.93092
2008-12-16 10:01:24 51°32.952 2°37.717 -999 0.065465 0.363395 -0.93092
2008-12-16 10:02:24 51°33.127 2°37.807 -999 0.065465 0.363428 -0.93092
2008-12-16 10:03:24 51°33.302 2°37.895 -999 0.065465 0.36346 -0.93092
2008-12-16 10:04:24 51°33.477 2°37.986 -999 0.065465 0.363493 -0.93092
2008-12-16 10:05:24 51°33.652 2°38.079 -999 0.065465 0.363526 -0.93092
2008-12-16 10:06:24 51°33.829 2°38.156 -999 0.065465 0.363565 -0.93092
2008-12-16 10:07:24 51°34.004 2°38.241 -999 0.065465 0.363592 -0.93092
2008-12-16 10:08:24 51°34.176 2°38.342 -999 0.065465 0.363631 -0.93092
2008-12-16 10:09:24 51°34.346 2°38.447 -999 0.065465 0.363671 -0.93092
2008-12-16 10:10:24 51°34.515 2°38.559 -999 0.065465 0.36371 -0.93092
2008-12-16 10:11:24 51°34.687 2°38.661 -999 0.065465 0.363749 -0.93092
2008-12-16 10:12:24 51°34.86 2°38.754 -999 0.065465 0.363782 -0.93092
2008-12-16 10:13:24 51°35.033 2°38.851 -999 0.065465 0.363809 -0.93092
2008-12-16 10:14:24 51°35.203 2°38.963 -999 0.065465 0.363848 -0.93092
2008-12-16 10:15:24 51°35.374 2°39.072 -999 0.065465 0.363888 -0.93092
2008-12-16 10:16:24 51°35.545 2°39.178 -999 0.065465 0.363914 -0.93092
2008-12-16 10:17:24 51°35.717 2°39.282 -999 0.065465 0.363947 -0.93092
2008-12-16 10:18:24 51°35.891 2°39.374 -999 0.065362 0.363389 -0.93092
2008-12-16 10:19:24 51°36.062 2°39.477 -999 0.065362 0.363429 -0.93092
2008-12-16 10:20:24 51°36.234 2°39.585 -999 0.065362 0.363455 -0.93092
2008-12-16 10:21:24 51°36.406 2°39.688 -999 0.065362 0.363501 -0.93092
2008-12-16 10:22:24 51°36.58 2°39.777 -999 0.065362 0.363534 -0.93092
2008-12-16 10:23:24 51°36.753 2°39.875 -999 0.065362 0.363554 -0.93092
2008-12-16 10:24:24 51°36.923 2°39.983 -999 0.065362 0.363593 -0.93092
2008-12-16 10:25:24 51°37.094 2°40.086 -999 0.065362 0.36362 -0.93092
2008-12-16 10:26:24 51°37.265 2°40.189 -999 0.065362 0.363659 -0.93092
2008-12-16 10:27:24 51°37.437 2°40.29 -999 0.065362 0.363692 -0.93092
2008-12-16 10:28:24 51°37.608 2°40.387 -999 0.065362 0.363725 -0.93092
2008-12-16 10:29:24 51°37.779 2°40.486 -999 0.065362 0.363751 -0.93092
2008-12-16 10:30:24 51°37.95 2°40.581 -999 0.065362 0.363784 -0.93092
2008-12-16 10:31:24 51°38.122 2°40.67 -999 0.065362 0.363817 -0.93092
2008-12-16 10:32:24 51°38.293 2°40.757 -999 0.065362 0.36385 -0.93092
2008-12-16 10:33:24 51°38.464 2°40.843 -999 0.065362 0.363883 -0.93092
2008-12-16 10:34:22 51°38.624 2°40.941 -999 0.065362 0.363916 -0.93092
2008-12-16 10:35:21 51°38.789 2°41.039 -999 0.065362 0.363942 -0.93092
2008-12-16 10:36:21 51°38.957 2°41.135 -999 0.065362 0.363969 -0.93092
2008-12-16 10:37:21 51°39.126 2°41.225 -999 0.06526 0.36341 -0.93092
2008-12-16 10:38:21 51°39.292 2°41.312 -999 0.06526 0.36345 -0.93092
2008-12-16 10:39:21 51°39.459 2°41.398 -999 0.06526 0.363483 -0.93092
2008-12-16 10:40:21 51°39.626 2°41.487 -999 0.06526 0.363509 -0.93092
2008-12-16 10:41:21 51°39.791 2°41.586 -999 0.06526 0.363529 -0.93092
2008-12-16 10:42:21 51°39.958 2°41.687 -999 0.06526 0.363562 -0.93092
2008-12-16 10:43:21 51°40.126 2°41.788 -999 0.06526 0.363602 -0.965744
2008-12-16 10:44:21 51°40.294 2°41.885 -999 0.06526 0.363628 -0.93092
2008-12-16 10:45:21 51°40.461 2°41.984 -999 0.06526 0.363654 -0.93092
2008-12-16 10:46:21 51°40.624 2°42.094 -999 0.06526 0.363681 -0.93092
2008-12-16 10:47:21 51°40.79 2°42.203 -999 0.06526 0.363714 -0.93092
2008-12-16 10:48:21 51°40.956 2°42.31 -999 0.06526 0.363747 -0.93092
2008-12-16 10:49:21 51°41.121 2°42.411 -999 0.06526 0.363773 -0.93092
2008-12-16 10:50:21 51°41.288 2°42.509 -999 0.06526 0.363813 -0.93092
2008-12-16 10:51:21 51°41.451 2°42.616 -999 0.06526 0.363833 -0.93092
2008-12-16 10:52:21 51°41.615 2°42.719 -999 0.06526 0.363866 -0.93092
2008-12-16 10:53:21 51°41.781 2°42.824 -999 0.06526 0.363899 -0.93092
2008-12-16 10:54:21 51°41.945 2°42.929 -999 0.06526 0.363925 -0.93092
2008-12-16 10:55:21 51°42.111 2°43.034 -999 0.06526 0.363958 -0.93092
2008-12-16 10:56:21 51°42.275 2°43.139 -999 0.06526 0.363991 -0.93092
2008-12-16 10:57:21 51°42.438 2°43.244 -999 0.065157 0.363432 -0.93092
2008-12-16 10:58:21 51°42.602 2°43.352 -999 0.065157 0.363465 -0.93092
2008-12-16 10:59:21 51°42.769 2°43.45 -999 0.065157 0.363498 -0.93092
2008-12-16 11:00:21 51°42.93 2°43.563 -999 0.065157 0.363531 -0.93092
2008-12-16 11:01:21 51°43.072 2°43.733 -999 0.065157 0.363564 -0.93092
2008-12-16 11:02:21 51°43.125 2°43.995 -999 0.065157 0.363597 -0.93092
2008-12-16 11:03:21 51°43.084 2°44.298 -999 0.065157 0.363637 -0.93092
2008-12-16 11:04:21 51°43.052 2°44.604 -999 0.065157 0.363663 -0.93092
2008-12-16 11:05:21 51°43.001 2°44.908 -999 0.065157 0.363703 -0.93092
2008-12-16 11:06:21 51°42.94 2°45.213 -999 0.065157 0.363723 -0.93092
2008-12-16 11:07:21 51°42.81 2°45.471 -999 0.065157 0.363769 -0.93092
2008-12-16 11:08:21 51°42.635 2°45.668 -999 0.065157 0.363802 -0.93092
2008-12-16 11:09:21 51°42.411 2°45.662 -999 0.065157 0.363822 -0.93092
2008-12-16 11:10:21 51°42.181 2°45.619 -999 0.065157 0.363868 -0.93092
2008-12-16 11:11:21 51°41.954 2°45.527 -999 0.065157 0.363895 -0.93092
2008-12-16 11:12:21 51°41.728 2°45.426 -999 0.065157 0.363921 -0.93092
2008-12-16 11:13:21 51°41.511 2°45.276 -999 0.065157 0.363961 -0.93092
2008-12-16 11:14:21 51°41.29 2°45.144 -999 0.065157 0.364001 -0.93092
2008-12-16 11:15:21 51°41.066 2°45.016 -999 0.065157 0.364027 -0.93092
2008-12-16 11:16:21 51°40.842 2°44.892 -999 0.065054 0.363467 -0.93092
2008-12-16 11:17:21 51°40.618 2°44.77 -999 0.065054 0.363513 -0.93092
2008-12-16 11:18:21 51°40.399 2°44.627 -999 0.065054 0.363546 -0.93092
2008-12-16 11:19:21 51°40.18 2°44.477 -999 0.065054 0.363599 -0.93092
2008-12-16 11:20:21 51°39.962 2°44.334 -999 0.065054 0.363633 -0.93092
2008-12-16 11:21:21 51°39.744 2°44.186 -999 0.065054 0.363672 -0.93092
2008-12-16 11:22:21 51°39.528 2°44.025 -999 0.065054 0.363699 -0.93092
2008-12-16 11:23:21 51°39.31 2°43.865 -999 0.065054 0.363745 -0.93092
2008-12-16 11:24:21 51°39.09 2°43.713 -999 0.065054 0.363772 -0.93092
2008-12-16 11:25:21 51°38.872 2°43.561 -999 0.065054 0.363812 -0.93092
2008-12-16 11:26:21 51°38.652 2°43.407 -999 0.065054 0.363858 -0.93092
2008-12-16 11:27:21 51°38.431 2°43.263 -999 0.065054 0.363898 -0.93092
2008-12-16 11:28:21 51°38.211 2°43.117 -999 0.065054 0.363931 -0.93092
2008-12-16 11:29:21 51°37.995 2°42.956 -999 0.065054 0.363971 -0.93092
2008-12-16 11:30:21 51°37.777 2°42.802 -999 0.065054 0.364011 -0.93092
2008-12-16 11:31:21 51°37.558 2°42.647 -999 0.064951 0.363456 -0.93092
2008-12-16 11:32:21 51°37.336 2°42.513 -999 0.064951 0.363496 -0.93092
2008-12-16 11:33:21 51°37.112 2°42.393 -999 0.064951 0.363529 -0.93092
2008-12-16 11:34:21 51°36.89 2°42.262 -999 0.064951 0.363569 -0.965744
2008-12-16 11:35:21 51°36.667 2°42.133 -999 0.064951 0.363616 -0.93092
2008-12-16 11:36:21 51°36.442 2°42.017 -999 0.064951 0.363662 -0.93092
2008-12-16 11:37:21 51°36.219 2°41.894 -999 0.064951 0.363708 -0.93092
2008-12-16 11:38:21 51°35.998 2°41.764 -999 0.064951 0.363742 -0.93092
2008-12-16 11:39:21 51°35.776 2°41.643 -999 0.064951 0.363775 -0.93092
2008-12-16 11:40:21 51°35.556 2°41.509 -999 0.064951 0.363821 -0.93092
2008-12-16 11:41:21 51°35.336 2°41.378 -999 0.064951 0.363861 -0.93092
2008-12-16 11:42:21 51°35.116 2°41.246 -999 0.064951 0.363901 -0.93092
2008-12-16 11:43:21 51°34.893 2°41.115 -999 0.064951 0.363935 -0.93092
2008-12-16 11:44:21 51°34.672 2°40.98 -999 0.064951 0.363981 -0.93092
2008-12-16 11:45:21 51°34.45 2°40.848 -999 0.064848 0.363426 -0.93092
2008-12-16 11:46:21 51°34.228 2°40.718 -999 0.064848 0.363472 -0.93092
2008-12-16 11:47:21 51°34.003 2°40.596 -999 0.064848 0.363506 -0.93092
2008-12-16 11:48:21 51°33.778 2°40.475 -999 0.064848 0.363552 -0.93092
2008-12-16 11:49:21 51°33.554 2°40.344 -999 0.064848 0.363579 -0.93092
2008-12-16 11:50:21 51°33.333 2°40.201 -999 0.064848 0.363619 -0.93092
2008-12-16 11:51:21 51°33.111 2°40.062 -999 0.064848 0.363659 -0.93092
2008-12-16 11:52:21 51°32.887 2°39.93 -999 0.064848 0.363685 -0.93092
2008-12-16 11:53:21 51°32.663 2°39.8 -999 0.064848 0.363718 -0.93092
2008-12-16 11:54:21 51°32.436 2°39.762 -999 0.064848 0.363778 -0.93092
2008-12-16 11:55:21 51°32.251 2°39.925 -999 0.064848 0.363805 -0.93092
2008-12-16 11:56:21 51°32.213 2°40.22 -999 0.064848 0.363832 -0.93092
2008-12-16 11:57:21 51°32.248 2°40.517 -999 0.064848 0.363845 -0.93092
2008-12-16 11:58:21 51°32.284 2°40.816 -999 0.064848 0.363892 -0.93092
2008-12-16 11:59:21 51°32.308 2°41.123 -999 0.064848 0.363938 -0.93092
2008-12-16 12:00:21 51°32.324 2°41.433 -999 0.064848 0.363965 -0.93092
2008-12-16 12:01:21 51°32.368 2°41.716 -999 0.064848 0.364018 -0.93092
2008-12-16 12:02:21 51°32.519 2°41.841 -999 0.064745 0.363429 -0.93092
2008-12-16 12:03:21 51°32.692 2°41.946 -999 0.064745 0.363455 -0.93092
2008-12-16 12:04:21 51°32.864 2°42.055 -999 0.064745 0.363495 -0.93092
2008-12-16 12:05:21 51°33.034 2°42.171 -999 0.064745 0.363529 -0.93092
2008-12-16 12:05:46 51°14.565 2°58.317 -999 0.066391 0.364058 -0.965744
2008-12-16 12:06:36 51°33.245 2°42.323 -999 0.064745 0.363575 -0.93092
2008-12-16 12:07:36 51°33.415 2°42.436 -999 0.064745 0.363602 -0.93092
2008-12-16 12:08:36 51°33.584 2°42.552 -999 0.064745 0.363629 -0.93092
2008-12-16 12:09:36 51°33.757 2°42.655 -999 0.064745 0.363669 -0.93092
2008-12-16 12:10:36 51°33.926 2°42.77 -999 0.064745 0.363702 -0.93092
2008-12-16 12:11:36 51°34.093 2°42.902 -999 0.064745 0.363735 -0.93092
2008-12-16 12:12:36 51°34.264 2°43.017 -999 0.064745 0.363769 -0.93092
2008-12-16 12:13:36 51°34.435 2°43.135 -999 0.064745 0.363802 -0.93092
2008-12-16 12:14:36 51°34.606 2°43.259 -999 0.064745 0.363836 -0.93092
2008-12-16 12:15:36 51°34.779 2°43.38 -999 0.064745 0.363862 -0.93092
2008-12-16 12:16:35 51°34.946 2°43.509 -999 0.064745 0.363889 -0.93092
2008-12-16 12:17:36 51°35.121 2°43.642 -999 0.064745 0.363922 -0.93092
2008-12-16 12:18:36 51°35.292 2°43.77 -999 0.064745 0.363956 -0.93092
2008-12-16 12:19:36 51°35.465 2°43.895 -999 0.064745 0.363989 -0.93092
2008-12-16 12:20:36 51°35.638 2°44.017 -999 0.064745 0.364016 -0.93092
2008-12-16 12:21:36 51°35.813 2°44.126 -999 0.064642 0.363459 -0.93092
2008-12-16 12:22:36 51°35.988 2°44.238 -999 0.064642 0.363492 -0.93092
2008-12-16 12:23:35 51°36.157 2°44.358 -999 0.064642 0.363526 -0.93092
2008-12-16 12:24:36 51°36.334 2°44.475 -999 0.064642 0.363552 -0.93092
2008-12-16 12:25:36 51°36.504 2°44.606 -999 0.064642 0.363586 -0.93092
2008-12-16 12:26:36 51°36.678 2°44.727 -999 0.064642 0.363632 -0.93092
2008-12-16 12:27:36 51°36.849 2°44.855 -999 0.064642 0.363659 -0.93092
2008-12-16 12:28:36 51°37.021 2°44.979 -999 0.064642 0.363699 -0.93092
2008-12-16 12:29:36 51°37.194 2°45.105 -999 0.064642 0.363726 -0.93092
2008-12-16 12:30:36 51°37.366 2°45.234 -999 0.064642 0.363746 -0.93092
2008-12-16 12:31:36 51°37.541 2°45.349 -999 0.064642 0.363786 -0.93092
2008-12-16 12:32:36 51°37.715 2°45.47 -999 0.064642 0.363813 -0.93092
2008-12-16 12:33:36 51°37.889 2°45.592 -999 0.064642 0.363847 -0.93092
2008-12-16 12:34:36 51°38.064 2°45.713 -999 0.064642 0.36388 -0.93092
2008-12-16 12:35:36 51°38.238 2°45.837 -999 0.064642 0.3639 -0.93092
2008-12-16 12:36:36 51°38.411 2°45.974 -999 0.064642 0.363934 -0.93092
2008-12-16 12:37:35 51°38.583 2°46.098 -999 0.064642 0.363974 -0.93092
2008-12-16 12:38:36 51°38.764 2°46.217 -999 0.064642 0.364001 -0.93092
2008-12-16 12:39:36 51°38.939 2°46.345 -999 0.064642 0.364027 -0.93092
2008-12-16 12:40:36 51°39.113 2°46.474 -999 0.064642 0.364054 -0.896096
2008-12-16 12:41:36 51°39.289 2°46.595 -999 0.064642 0.364088 -0.93092
2008-12-16 12:42:35 51°39.464 2°46.712 -999 0.064539 0.363523 -0.93092
2008-12-16 12:43:36 51°39.643 2°46.835 -999 0.064539 0.36355 -0.93092
2008-12-16 12:44:36 51°39.819 2°46.962 -999 0.064539 0.363576 -0.93092
2008-12-16 12:45:36 51°39.996 2°47.081 -999 0.064539 0.36361 -0.93092
2008-12-16 12:46:36 51°40.172 2°47.208 -999 0.064539 0.363637 -0.93092
2008-12-16 12:47:36 51°40.35 2°47.329 -999 0.064539 0.36367 -0.93092
2008-12-16 12:48:36 51°40.531 2°47.438 -999 0.064539 0.363697 -0.93092
2008-12-16 12:49:35 51°40.705 2°47.564 -999 0.064539 0.363724 -0.93092
2008-12-16 12:50:37 51°40.889 2°47.7 -999 0.064539 0.36375 -0.93092
2008-12-16 12:51:36 51°41.062 2°47.828 -999 0.064539 0.363777 -0.93092
2008-12-16 12:52:36 51°41.241 2°47.946 -999 0.064539 0.363818 -0.93092
2008-12-16 12:53:36 51°41.42 2°48.066 -999 0.064539 0.363838 -0.93092
2008-12-16 12:54:36 51°41.597 2°48.199 -999 0.064539 0.363871 -0.93092
2008-12-16 12:55:36 51°41.776 2°48.326 -999 0.064539 0.363898 -0.93092
2008-12-16 12:56:36 51°41.956 2°48.448 -999 0.064539 0.363925 -0.93092
2008-12-16 12:57:36 51°41.986 2°48.721 -999 0.064539 0.363985 -0.93092
2008-12-16 12:58:36 51°41.848 2°48.971 -999 0.064539 0.363992 -0.93092
2008-12-16 12:59:36 51°41.691 2°49.207 -999 0.064539 0.364005 -0.93092
2008-12-16 13:00:36 51°41.53 2°49.439 -999 0.064539 0.364046 -0.93092
2008-12-16 13:01:36 51°41.342 2°49.603 -999 0.064539 0.364073 -0.93092
2008-12-16 13:02:36 51°41.125 2°49.61 -999 0.064436 0.3635 -0.93092
2008-12-16 13:03:36 51°40.916 2°49.514 -999 0.064436 0.36352 -0.93092
2008-12-16 13:04:36 51°40.709 2°49.401 -999 0.064436 0.363554 -0.93092
2008-12-16 13:05:36 51°40.497 2°49.302 -999 0.064436 0.363567 -0.93092
2008-12-16 13:06:36 51°40.284 2°49.216 -999 0.064436 0.363601 -0.93092
2008-12-16 13:07:36 51°40.07 2°49.145 -999 0.064436 0.363634 -0.93092
2008-12-16 13:08:36 51°39.862 2°49.041 -999 0.064436 0.363668 -0.93092
2008-12-16 13:09:36 51°39.658 2°48.925 -999 0.064436 0.363688 -0.93092
2008-12-16 13:10:36 51°39.45 2°48.821 -999 0.064436 0.363722 -0.93092
2008-12-16 13:11:36 51°39.242 2°48.723 -999 0.064436 0.363748 -0.93092
2008-12-16 13:12:36 51°39.036 2°48.622 -999 0.064436 0.363782 -0.93092
2008-12-16 13:13:36 51°38.831 2°48.517 -999 0.064436 0.363802 -0.93092
2008-12-16 13:14:36 51°38.628 2°48.405 -999 0.064436 0.363843 -0.93092
2008-12-16 13:15:36 51°38.426 2°48.297 -999 0.064436 0.363883 -0.93092
2008-12-16 13:16:36 51°38.219 2°48.207 -999 0.064436 0.363917 -0.93092
2008-12-16 13:17:36 51°38.015 2°48.114 -999 0.064436 0.363943 -0.93092
2008-12-16 13:18:35 51°37.816 2°48.02 -999 0.064436 0.363984 -0.93092
2008-12-16 13:19:37 51°37.607 2°47.919 -999 0.064436 0.364017 -0.93092
2008-12-16 13:20:36 51°37.409 2°47.825 -999 0.064436 0.364044 -0.93092
2008-12-16 13:21:36 51°37.211 2°47.715 -999 0.064436 0.364085 -0.93092
2008-12-16 13:22:37 51°37.009 2°47.606 -999 0.064436 0.364118 -0.93092
2008-12-16 13:23:36 51°36.813 2°47.505 -999 0.064436 0.364166 -0.93092
2008-12-16 13:24:36 51°36.613 2°47.414 -999 0.064333 0.363592 -0.93092
2008-12-16 13:25:36 51°36.416 2°47.313 -999 0.064333 0.363619 -0.93092
2008-12-16 13:26:36 51°36.218 2°47.214 -999 0.064333 0.363646 -0.93092
2008-12-16 13:27:36 51°36.023 2°47.11 -999 0.064333 0.363679 -0.93092
2008-12-16 13:28:36 51°35.826 2°47.014 -999 0.064333 0.363706 -0.93092
2008-12-16 13:29:37 51°35.628 2°46.91 -999 0.064333 0.363733 -0.93092
2008-12-16 13:30:36 51°35.437 2°46.808 -999 0.064333 0.36378 -0.93092
2008-12-16 13:31:36 51°35.24 2°46.72 -999 0.064333 0.363807 -0.93092
2008-12-16 13:32:36 51°35.047 2°46.614 -999 0.064333 0.363834 -0.93092
2008-12-16 13:33:36 51°34.854 2°46.507 -999 0.064333 0.363875 -0.93092
2008-12-16 13:34:36 51°34.663 2°46.396 -999 0.064333 0.363902 -0.93092
2008-12-16 13:35:36 51°34.472 2°46.283 -999 0.064333 0.363929 -0.93092
2008-12-16 13:36:37 51°34.279 2°46.167 -999 0.064333 0.363962 -0.93092
2008-12-16 13:37:36 51°34.092 2°46.055 -999 0.064333 0.363989 -0.93092
2008-12-16 13:38:36 51°33.903 2°45.943 -999 0.064333 0.364023 -0.93092
2008-12-16 13:39:36 51°33.712 2°45.845 -999 0.064333 0.364063 -0.93092
2008-12-16 13:40:36 51°33.522 2°45.747 -999 0.064333 0.36409 -0.93092
2008-12-16 13:41:36 51°33.334 2°45.638 -999 0.064333 0.364117 -0.93092
2008-12-16 13:42:37 51°33.142 2°45.538 -999 0.064333 0.364151 -0.93092
2008-12-16 13:43:35 51°32.96 2°45.443 -999 0.064231 0.363583 -0.93092
2008-12-16 13:44:37 51°32.77 2°45.325 -999 0.064333 0.364219 -0.93092
2008-12-16 13:45:37 51°32.584 2°45.219 -999 0.064231 0.363658 -0.93092
2008-12-16 13:46:37 51°32.398 2°45.123 -999 0.064231 0.363685 -0.93092
2008-12-16 13:47:37 51°32.211 2°45.03 -999 0.064231 0.363712 -0.93092
2008-12-16 13:48:35 51°32.032 2°44.937 -999 0.064231 0.363739 -0.93092
2008-12-16 13:49:37 51°31.844 2°44.823 -999 0.064231 0.363772 -0.93092
2008-12-16 13:50:35 51°31.667 2°44.726 -999 0.064231 0.363806 -0.93092
2008-12-16 13:51:37 51°31.478 2°44.629 -999 0.064231 0.363847 -0.93092
2008-12-16 13:52:36 51°31.3 2°44.522 -999 0.064231 0.363874 -0.93092
2008-12-16 13:53:36 51°31.119 2°44.415 -999 0.064231 0.363907 -0.93092
2008-12-16 13:54:36 51°30.936 2°44.315 -999 0.064231 0.363948 -0.93092
2008-12-16 13:55:36 51°30.754 2°44.215 -999 0.064231 0.363975 -0.93092
2008-12-16 13:56:36 51°30.57 2°44.119 -999 0.064231 0.364009 -0.93092
2008-12-16 13:57:36 51°30.385 2°44.036 -999 0.064231 0.364036 -0.93092
2008-12-16 13:58:36 51°30.201 2°43.952 -999 0.064231 0.36407 -0.93092
2008-12-16 13:59:37 51°30.008 2°43.91 -999 0.064231 0.364097 -0.93092
2008-12-16 14:00:36 51°29.815 2°43.95 -999 0.064231 0.364124 -0.93092
2008-12-16 14:01:37 51°29.617 2°44.024 -999 0.064231 0.364151 -0.93092
2008-12-16 14:02:36 51°29.428 2°44.113 -999 0.064231 0.364178 -0.93092
2008-12-16 14:03:36 51°29.237 2°44.218 -999 0.064128 0.363616 -0.93092
2008-12-16 14:04:36 51°29.046 2°44.325 -999 0.064128 0.363643 -0.93092
2008-12-16 14:05:37 51°28.851 2°44.431 -999 0.064128 0.363663 -0.93092
2008-12-16 14:06:36 51°28.666 2°44.55 -999 0.064128 0.363704 -0.93092
2008-12-16 14:07:36 51°28.477 2°44.677 -999 0.064128 0.363717 -0.93092
2008-12-16 14:08:36 51°28.289 2°44.811 -999 0.064128 0.363751 -0.93092
2008-12-16 14:09:36 51°28.103 2°44.942 -999 0.064128 0.363785 -0.93092
2008-12-16 14:10:36 51°27.916 2°45.072 -999 0.064128 0.363819 -0.93092
2008-12-16 14:11:36 51°27.726 2°45.201 -999 0.064128 0.363859 -0.93092
2008-12-16 14:12:36 51°27.54 2°45.334 -999 0.064128 0.363893 -0.93092
2008-12-16 14:13:36 51°27.353 2°45.467 -999 0.064128 0.363927 -0.93092
2008-12-16 14:14:36 51°27.167 2°45.586 -999 0.064128 0.363961 -0.93092
2008-12-16 14:15:36 51°26.984 2°45.702 -999 0.064128 0.363995 -0.93092
2008-12-16 14:16:37 51°26.799 2°45.826 -999 0.064128 0.364035 -0.93092
2008-12-16 14:17:37 51°26.619 2°45.95 -999 0.064128 0.364083 -0.93092
2008-12-16 14:18:36 51°26.438 2°46.06 -999 0.064128 0.36411 -0.93092
2008-12-16 14:19:37 51°26.253 2°46.184 -999 0.064128 0.36415 -0.93092
2008-12-16 14:20:36 51°26.073 2°46.306 -999 0.064128 0.364178 -0.93092
2008-12-16 14:21:36 51°25.89 2°46.428 -999 0.064128 0.364218 -0.93092
2008-12-16 14:22:36 51°25.708 2°46.548 -999 0.064128 0.364259 -0.93092
2008-12-16 14:23:36 51°25.524 2°46.659 -999 0.064025 0.363689 -0.93092
2008-12-16 14:24:36 51°25.337 2°46.767 -999 0.064025 0.36373 -0.93092
2008-12-16 14:25:36 51°25.153 2°46.89 -999 0.064025 0.363764 -0.93092
2008-12-16 14:26:36 51°24.976 2°47.02 -999 0.064025 0.363804 -0.93092
2008-12-16 14:27:36 51°24.803 2°47.161 -999 0.064025 0.363845 -0.93092
2008-12-16 14:28:36 51°24.626 2°47.289 -999 0.064025 0.363872 -0.93092
2008-12-16 14:29:36 51°24.451 2°47.43 -999 0.064025 0.363926 -0.93092
2008-12-16 14:30:36 51°24.272 2°47.562 -999 0.064025 0.36396 -0.93092
2008-12-16 14:31:37 51°24.089 2°47.7 -999 0.064025 0.364008 -0.93092
2008-12-16 14:32:36 51°23.913 2°47.843 -999 0.064025 0.364035 -0.93092
2008-12-16 14:33:36 51°23.734 2°47.996 -999 0.064025 0.364062 -0.93092
2008-12-16 14:34:36 51°23.552 2°48.14 -999 0.064025 0.364089 -0.93092
2008-12-16 14:35:37 51°23.36 2°48.252 -999 0.064025 0.36413 -0.93092
2008-12-16 14:36:36 51°23.173 2°48.351 -999 0.064025 0.364171 -0.93092
2008-12-16 14:37:36 51°22.981 2°48.428 -999 0.064025 0.364212 -0.93092
2008-12-16 14:38:36 51°22.789 2°48.495 -999 0.064025 0.364239 -0.93092
2008-12-16 14:39:36 51°22.601 2°48.569 -999 0.063922 0.363675 -0.93092
2008-12-16 14:40:36 51°22.415 2°48.653 -999 0.063922 0.363709 -0.93092
2008-12-16 14:41:37 51°22.224 2°48.73 -999 0.063922 0.363736 -0.93092
2008-12-16 14:42:37 51°22.035 2°48.805 -999 0.063922 0.36377 -0.93092
2008-12-16 14:43:36 51°21.847 2°48.872 -999 0.063922 0.363804 -0.93092
2008-12-16 14:44:36 51°21.659 2°48.975 -999 0.063922 0.363824 -0.93092
2008-12-16 14:45:36 51°21.48 2°49.086 -999 0.063922 0.363858 -0.93092
2008-12-16 14:46:36 51°21.302 2°49.197 -999 0.063922 0.363892 -0.93092
2008-12-16 14:47:36 51°21.126 2°49.314 -999 0.063922 0.363926 -0.93092
2008-12-16 14:48:36 51°20.949 2°49.433 -999 0.063922 0.36396 -0.93092
2008-12-16 14:49:37 51°20.768 2°49.555 -999 0.063922 0.363994 -0.93092
2008-12-16 14:50:37 51°20.591 2°49.681 -999 0.063922 0.364035 -0.93092
2008-12-16 14:51:37 51°20.413 2°49.809 -999 0.063922 0.364069 -0.93092
2008-12-16 14:52:37 51°20.235 2°49.939 -999 0.063922 0.364096 -0.93092
2008-12-16 14:53:36 51°20.058 2°50.068 -999 0.063922 0.364124 -0.93092
2008-12-16 14:54:36 51°19.878 2°50.209 -999 0.063922 0.364165 -0.93092
2008-12-16 14:55:37 51°19.696 2°50.353 -999 0.063922 0.364199 -0.93092
2008-12-16 14:56:36 51°19.517 2°50.487 -999 0.063922 0.364233 -0.93092
2008-12-16 14:57:37 51°19.328 2°50.613 -999 0.063922 0.364267 -0.93092
2008-12-16 14:58:37 51°19.143 2°50.74 -999 0.063922 0.364308 -0.93092
2008-12-16 14:59:36 51°18.963 2°50.87 -999 0.063819 0.36375 -0.93092
2008-12-16 15:00:37 51°18.781 2°51.021 -999 0.063819 0.363777 -0.93092
2008-12-16 15:01:36 51°18.615 2°51.172 -999 0.063819 0.363811 -0.93092
2008-12-16 15:02:36 51°18.446 2°51.328 -999 0.063819 0.363859 -0.93092
2008-12-16 15:03:37 51°18.272 2°51.492 -999 0.063819 0.363899 -0.93092
2008-12-16 15:04:37 51°18.096 2°51.638 -999 0.063819 0.363933 -0.93092
2008-12-16 15:05:37 51°17.917 2°51.773 -999 0.063819 0.363974 -0.93092
2008-12-16 15:06:37 51°17.741 2°51.918 -999 0.063819 0.364015 -0.93092
2008-12-16 15:07:37 51°17.566 2°52.06 -999 0.063819 0.364056 -0.93092
2008-12-16 15:08:36 51°17.393 2°52.196 -999 0.063819 0.364104 -0.93092
2008-12-16 15:09:36 51°17.208 2°52.29 -999 0.063819 0.364152 -0.93092
2008-12-16 15:10:36 51°17.021 2°52.376 -999 0.063819 0.364199 -0.93092
2008-12-16 15:11:36 51°16.832 2°52.469 -999 0.063819 0.364247 -0.93092
2008-12-16 15:12:36 51°16.644 2°52.565 -999 0.063819 0.364288 -0.93092
2008-12-16 15:13:36 51°16.457 2°52.658 -999 0.063819 0.364336 -0.93092
2008-12-16 15:14:37 51°16.264 2°52.755 -999 0.063819 0.364384 -0.93092
2008-12-16 15:15:36 51°16.081 2°52.88 -999 0.063716 0.363825 -0.93092
2008-12-16 15:16:37 51°15.921 2°53.016 -999 0.063716 0.363873 -0.93092
2008-12-16 15:17:36 51°15.776 2°53.143 -999 0.063716 0.363927 -0.93092
2008-12-16 15:18:36 51°15.647 2°53.324 -999 0.063716 0.363968 -0.93092
2008-12-16 15:19:36 51°15.532 2°53.522 -999 0.063716 0.364002 -0.93092
2008-12-16 15:20:36 51°15.417 2°53.718 -999 0.063716 0.36405 -0.93092
2008-12-16 15:21:37 51°15.298 2°53.909 -999 0.063716 0.364091 -0.93092
2008-12-16 15:22:36 51°15.217 2°54.045 -999 0.063716 0.364139 -0.93092
2008-12-16 15:23:37 51°15.152 2°54.158 -999 0.063716 0.36418 -0.93092
2008-12-16 15:24:36 51°15.095 2°54.31 -999 0.063716 0.364228 -0.93092
2008-12-16 15:25:37 51°15.055 2°54.488 -999 0.063716 0.364255 -0.93092
2008-12-16 15:26:36 51°15.018 2°54.606 -999 0.063716 0.364303 -0.93092
2008-12-16 15:27:36 51°14.972 2°54.666 -999 0.063716 0.364344 -0.93092
2008-12-16 15:28:36 51°14.924 2°54.692 -999 0.063716 0.364379 -0.93092
2008-12-16 15:29:36 51°14.851 2°54.695 -999 0.063613 0.363805 -0.93092
2008-12-16 15:30:37 51°14.735 2°54.746 -999 0.063613 0.363846 -0.93092
2008-12-16 15:31:37 51°14.61 2°54.879 -999 0.063613 0.363873 -0.93092
2008-12-16 15:32:37 51°14.469 2°55.021 -999 0.063613 0.363908 -0.93092
2008-12-16 15:33:37 51°14.319 2°55.197 -999 0.063613 0.363955 -0.93092
2008-12-16 15:34:37 51°14.176 2°55.369 -999 0.063613 0.36399 -0.93092
2008-12-16 15:35:37 51°14.036 2°55.482 -999 0.063613 0.36401 -0.93092
2008-12-16 15:36:37 51°13.927 2°55.557 -999 0.063613 0.364065 -0.93092